User: anonymous   Login
Location: Unspecified
(0.0000°N, 0.0000°E)
Time: 12:26:38
(UTC+00:00)
Language:

STSS DEMO 2 (USA 209) - Orbit

View from above orbital plane
View from above orbital plane
View from above satellite
View from above satellite

Ground track
Ground track

The orbit data is extracted from the following two-line orbital elements,

1 35938U 09052B   16337.75846295 0.00000020  00000-0  88458-4 0    02
2 35938  57.9916 195.0139 0018152 118.6659 241.3340 12.79325115    01
Epoch (UTC): 02 December 2016 18:12:11
Eccentricity: 0.0018152
inclination: 57.9916°
perigee height: 1330 km
apogee height: 1358 km
right ascension of ascending node: 195.0139°
argument of perigee: 118.6659°
revolutions per day: 12.79325115
mean anomaly at epoch: 241.3340°
orbit number at epoch: 0

The dashed part of the orbit path shows where the satellite is in the earth's shadow,  

DLR